Waarnemingen

Advertentie
Mijn weer
Bjuroklubb, Zweden (2297): temperatuur & dauwpunt: 14.09.2020 20:00:00 - 20.09.2020 20:00:00 (CEST)Bjuroklubb, Zweden (2297): windsnelheid & windstoten: 14.09.2020 20:00:00 - 20.09.2020 20:00:00 (CEST)Bjuroklubb, Zweden (2297): windrichting: 14.09.2020 20:00:00 - 20.09.2020 20:00:00 (CEST)Bjuroklubb, Zweden (2297): luchtdruk: 14.09.2020 20:00:00 - 20.09.2020 20:00:00 (CEST)Bjuroklubb, Zweden (2297): zicht: 14.09.2020 20:00:00 - 20.09.2020 20:00:00 (CEST)Bjuroklubb, Zweden (2297): neerslag: 14.09.2020 20:00:00 - 20.09.2020 20:00:00 (CEST)
Datum & Tijd tt [°C] td [°C] ff [km/u] ff [kn] fx [km/u] fx [kn] dd ppp [hPa] vv [km] rr [mm]
20.09.2020 20:00:00 10,6 2,7 27 14 46 25 W 1005,8 50 0,0
20.09.2020 19:00:00 10,8 2,6 37 20 61 33 W 1006,0 50 0,0
20.09.2020 18:00:00 11,6 2,6 45 24 64 35 W 1005,5 50 0,0
20.09.2020 17:00:00 12,6 2,7 48 26 62 34 W 1005,4 50 0,0
20.09.2020 16:00:00 12,6 4,7 35 19 58 31 W 1005,7 50 0,0
20.09.2020 15:00:00 11,8 6,1 27 14 37 20 WZW 1005,8 50 0,0
20.09.2020 14:00:00 10,0 5,2 30 16 45 24 ZW 1006,0 50 0,0
20.09.2020 13:00:00 9,0 5,0 27 15 45 24 ZW 1006,6 50 0,0
20.09.2020 12:00:00 7,5 4,9 27 14 44 24 ZW 1008,0 50 0,0
20.09.2020 11:00:00 6,8 4,5 29 16 41 22 ZW 1008,5 50 0,0
20.09.2020 10:00:00 6,2 4,2 24 13 38 20 ZW 1009,7 50 0,0
20.09.2020 09:00:00 6,7 3,5 24 13 37 20 ZZW 1010,4 50 0,1
20.09.2020 08:00:00 6,3 3,5 23 12 32 17 ZW 1011,2 50 0,0
20.09.2020 07:00:00 6,3 3,6 23 13 33 18 WZW 1012,2 50 0,0
20.09.2020 06:00:00 6,2 3,9 28 15 34 18 WZW 1013,1 50 0,0
20.09.2020 05:00:00 6,4 3,7 24 13 31 17 WZW 1013,8 50 0,0
20.09.2020 04:00:00 6,6 3,5 23 12 29 16 WZW 1014,7 50 0,0
20.09.2020 03:00:00 6,9 3,5 22 12 28 15 WZW 1015,8 50 0,0
20.09.2020 02:00:00 7,0 3,4 22 12 31 17 WZW 1016,6 50 0,0
20.09.2020 01:00:00 7,0 3,1 18 10 23 12 WZW 1017,0 50 0,0
20.09.2020 00:00:00 7,5 3,3 18 10 29 15 W 1017,1 50 0,0
19.09.2020 23:00:00 7,1 3,5 20 11 23 13 W 1017,3 50 0,0
19.09.2020 22:00:00 7,8 2,9 22 12 27 15 WNW 1017,4 50 0,0
19.09.2020 21:00:00 8,6 3,4 19 11 29 16 NNW 1017,4 50 0,0
19.09.2020 20:00:00 8,6 3,8 24 13 28 15 NW 1017,4 50 0,0
19.09.2020 19:00:00 9,8 4,2 22 12 31 17 NW 1017,0 50 0,0
19.09.2020 18:00:00 11,3 4,3 23 12 38 21 WNW 1016,6 50 0,0
19.09.2020 17:00:00 13,3 3,6 33 18 46 25 WNW 1016,2 50 0,0
19.09.2020 16:00:00 13,6 2,6 35 19 51 28 NW 1016,0 50 0,0
19.09.2020 15:00:00 13,8 2,1 42 23 56 30 NW 1015,7 50 0,0
19.09.2020 14:00:00 13,6 2,5 45 25 56 30 NW 1015,6 50 0,0
19.09.2020 13:00:00 13,2 3,4 42 23 59 32 NW 1015,5 50 0,0
19.09.2020 12:00:00 12,7 2,5 49 26 64 35 NW 1015,2 50 0,0
19.09.2020 11:00:00 11,8 3,3 49 27 66 36 NW 1014,8 50 0,0
19.09.2020 10:00:00 11,0 4,0 46 25 57 31 WNW 1014,6 50 0,0
19.09.2020 09:00:00 10,0 4,2 41 22 53 29 WNW 1014,3 50 0,0
19.09.2020 08:00:00 8,9 3,9 40 21 50 27 WNW 1013,9 50 0,0
19.09.2020 07:00:00 7,6 4,0 38 21 50 27 W 1013,6 50 0,0
19.09.2020 06:00:00 7,8 4,0 43 23 49 26 W 1013,1 50 0,0
19.09.2020 05:00:00 8,0 3,7 32 17 43 23 W 1013,2 50 0,0
19.09.2020 04:00:00 8,3 3,9 37 20 59 32 W 1012,8 50 0,0
19.09.2020 03:00:00 8,5 3,9 47 25 55 30 W 1012,0 50 0,0
19.09.2020 02:00:00 8,6 4,0 42 23 52 28 W 1012,1 50 0,0
19.09.2020 01:00:00 9,1 3,7 37 20 58 31 W 1012,3 50 0,0
19.09.2020 00:00:00 9,5 3,7 46 25 55 30 W 1011,8 50 0,0
18.09.2020 23:00:00 9,9 3,7 45 24 62 34 W 1011,8 50 0,0
18.09.2020 22:00:00 10,4 3,9 46 25 56 30 W 1011,5 50 0,0
18.09.2020 21:00:00 10,6 3,8 36 19 53 29 W 1011,6 50 0,0
18.09.2020 20:00:00 10,9 4,1 27 14 42 23 W 1011,4 50 0,0
18.09.2020 19:00:00 11,7 4,5 33 18 56 31 W 1010,9 50 0,0
18.09.2020 18:00:00 13,2 3,8 50 27 74 40 NW 1010,2 50 0,0
18.09.2020 17:00:00 14,6 3,7 46 25 68 37 WNW 1009,5 50 0,0
18.09.2020 16:00:00 15,1 5,9 53 29 71 38 W 1008,7 50 0,0
18.09.2020 15:00:00 15,5 6,0 48 26 69 37 WNW 1007,9 50 0,0
18.09.2020 14:00:00 15,0 9,1 39 21 55 30 WNW 1007,7 50 0,0
18.09.2020 13:00:00 12,4 10,6 35 19 55 30 WNW 1007,5 36 0,6
18.09.2020 12:00:00 15,7 8,4 36 19 56 30 W 1006,9 50 0,0
18.09.2020 11:00:00 13,9 7,9 34 18 49 26 W 1007,2 50 0,0
18.09.2020 10:00:00 11,1 5,8 37 20 53 29 WZW 1007,3 50 0,0
18.09.2020 09:00:00 8,9 3,9 32 18 48 26 ZW 1007,7 50 0,0
18.09.2020 08:00:00 8,5 2,9 37 20 56 30 ZW 1008,9 50 0,0
18.09.2020 07:00:00 7,6 3,1 26 14 45 24 ZZW 1010,4 50 0,0
18.09.2020 06:00:00 7,3 3,2 23 13 36 20 ZZW 1011,9 50 0,0
18.09.2020 05:00:00 7,2 3,1 22 12 37 20 ZZW 1013,8 50 0,0
18.09.2020 04:00:00 7,0 3,0 24 13 36 20 ZW 1015,4 50 0,0
18.09.2020 03:00:00 7,0 2,3 26 14 34 19 ZW 1016,8 50 0,0
18.09.2020 02:00:00 6,2 2,3 19 11 28 15 ZW 1017,8 50 0,0
18.09.2020 01:00:00 6,1 2,8 11 6 18 10 ZZW 1018,7 50 0,0
18.09.2020 00:00:00 7,2 2,9 8 5 16 9 ZW 1019,9 50 0,0
17.09.2020 23:00:00 6,3 2,9 10 5 19 10 WZW 1020,6 50 0,0
17.09.2020 22:00:00 7,1 2,6 8 5 13 7 WZW 1021,0 50 0,0
17.09.2020 21:00:00 7,6 3,6 6 3 9 5 WZW 1021,4 50 0,0
17.09.2020 20:00:00 7,3 4,4 6 4 16 9 NW 1021,8 50 0,0
17.09.2020 19:00:00 8,5 5,2 13 7 21 11 NW 1022,1 50 0,0
17.09.2020 18:00:00 9,5 4,9 20 11 24 13 NNW 1022,1 50 0,0
17.09.2020 17:00:00 9,9 4,7 23 12 35 19 N 1022,1 50 0,0
17.09.2020 16:00:00 10,6 5,1 28 15 47 25 N 1021,9 50 0,0
17.09.2020 15:00:00 10,2 3,9 35 19 46 25 N 1021,6 50 0,0
17.09.2020 14:00:00 9,8 4,4 40 21 51 28 N 1021,6 50 0,0
17.09.2020 13:00:00 10,1 5,3 42 23 54 29 N 1021,4 50 0,0
17.09.2020 12:00:00 9,5 5,5 48 26 66 36 N 1021,6 50 0,0
17.09.2020 11:00:00 8,5 4,7 49 26 70 38 N 1021,2 50 0,0
17.09.2020 10:00:00 7,6 4,4 56 31 81 44 N 1020,7 50 0,0
17.09.2020 09:00:00 7,4 5,0 61 33 79 43 N 1019,8 50 0,0
17.09.2020 08:00:00 7,3 4,8 67 36 88 48 N 1018,8 50 0,0
17.09.2020 07:00:00 7,7 5,2 66 36 90 49 N 1017,9 50 0,0
17.09.2020 06:00:00 8,0 5,8 70 38 92 50 N 1017,1 50 0,0
17.09.2020 05:00:00 8,2 6,0 69 37 99 53 N 1016,3 50 0,0
17.09.2020 04:00:00 8,2 6,2 74 40 95 52 N 1015,2 50 0,0
17.09.2020 03:00:00 8,2 6,5 73 39 96 52 N 1014,5 50 0,0
17.09.2020 02:00:00 8,3 6,4 77 42 103 56 N 1013,7 - 0,0
17.09.2020 01:00:00 8,3 6,8 76 41 101 55 N 1012,7 - 0,0
17.09.2020 00:00:00 8,3 7,1 76 41 106 57 N 1011,9 - 0,0
16.09.2020 23:00:00 8,1 7,2 80 43 103 56 N 1010,9 - 0,3
16.09.2020 22:00:00 7,8 7,5 82 45 104 56 N 1009,9 - 0,3
16.09.2020 21:00:00 7,7 7,6 75 41 106 57 N 1009,2 6 0,7
16.09.2020 20:00:00 7,4 7,3 73 39 97 53 N 1008,3 3,2 2,9
16.09.2020 19:00:00 7,5 7,2 73 39 106 57 N 1007,3 9 0,7
16.09.2020 18:00:00 7,6 7,5 77 42 103 56 N 1006,2 6 1,9
16.09.2020 17:00:00 8,2 8,1 71 39 98 53 N 1005,4 - 0,9
16.09.2020 16:00:00 8,6 8,5 76 41 100 54 N 1004,4 - 1,2
16.09.2020 15:00:00 8,8 8,7 74 40 100 54 NNO 1003,9 - 0,9
16.09.2020 14:00:00 8,7 8,6 72 39 99 54 N 1004,2 5 1,9
16.09.2020 13:00:00 9,2 9,1 51 27 61 33 NNO 1004,7 5 2,5
16.09.2020 12:00:00 9,2 9,1 48 26 57 31 NO 1005,3 6 2,5
16.09.2020 11:00:00 9,1 9,0 37 20 46 25 ONO 1006,4 3,6 1,6
16.09.2020 10:00:00 - - - - - - - - - -
16.09.2020 09:00:00 - - - - - - - - - -
16.09.2020 08:00:00 8,5 8,4 24 13 34 18 OZO 1009,4 8 1,6
16.09.2020 07:00:00 8,2 8,1 15 8 24 13 OZO 1010,9 6 1,7
16.09.2020 06:00:00 8,6 8,5 15 8 32 17 Z 1012,1 13 1,6
16.09.2020 05:00:00 10,3 9,5 16 9 28 15 ZZO 1013,2 21 0,1
16.09.2020 04:00:00 10,7 9,1 16 9 26 14 ZZO 1014,2 50 0,0
16.09.2020 03:00:00 10,3 9,1 13 7 19 11 Z 1015,3 50 0,0
16.09.2020 02:00:00 9,5 8,1 13 7 20 11 Z 1016,1 50 0,0
16.09.2020 01:00:00 9,0 8,0 16 9 21 12 Z 1016,8 50 0,0
16.09.2020 00:00:00 9,2 5,6 9 5 13 7 ZZW 1017,6 50 0,0
15.09.2020 23:00:00 9,6 4,4 12 6 17 9 ZZW 1018,1 50 0,0
15.09.2020 22:00:00 9,7 3,9 13 7 16 9 ZZW 1018,5 50 0,0
15.09.2020 21:00:00 11,1 3,6 9 5 16 9 WZW 1018,7 50 0,0
15.09.2020 20:00:00 11,0 4,0 13 7 16 9 WZW 1019,1 50 0,0
15.09.2020 19:00:00 11,2 4,2 12 7 16 8 W 1019,2 50 0,0
15.09.2020 18:00:00 11,3 4,7 14 7 27 14 W 1019,5 50 0,0
15.09.2020 17:00:00 14,4 4,7 6 3 13 7 WZW 1019,7 50 0,0
15.09.2020 16:00:00 14,3 6,4 9 5 23 12 Z 1019,9 50 0,0
15.09.2020 15:00:00 12,6 7,1 17 9 24 13 ZO 1020,1 27 0,0
15.09.2020 14:00:00 12,0 6,1 10 5 16 8 ZO 1020,3 50 0,0
15.09.2020 13:00:00 12,5 5,4 8 4 11 6 ONO 1020,2 50 0,0
15.09.2020 12:00:00 12,5 4,7 4 2 17 9 NNW 1019,9 50 0,0
15.09.2020 11:00:00 12,1 5,9 18 10 27 15 NW 1019,6 50 0,0
15.09.2020 10:00:00 11,0 5,5 21 11 29 16 NW 1019,1 50 0,0
15.09.2020 09:00:00 9,4 5,0 27 14 34 18 WNW 1018,5 50 0,0
15.09.2020 08:00:00 8,3 4,5 29 16 36 19 WNW 1018,1 50 0,0
15.09.2020 07:00:00 7,7 4,5 29 16 35 19 WNW 1017,7 50 0,0
15.09.2020 06:00:00 7,4 4,4 25 13 35 19 WNW 1017,3 50 0,0
15.09.2020 05:00:00 7,8 4,3 30 16 39 21 WNW 1016,6 50 0,0
15.09.2020 04:00:00 8,1 4,5 35 19 40 22 WNW 1016,1 50 0,0
15.09.2020 03:00:00 8,3 4,3 32 17 41 22 WNW 1015,8 50 0,0
15.09.2020 02:00:00 8,7 4,3 32 18 44 24 WNW 1015,2 50 0,0
15.09.2020 01:00:00 9,1 4,3 33 18 43 23 WNW 1014,8 50 0,0
15.09.2020 00:00:00 9,1 4,5 29 16 37 20 W 1014,1 50 0,0
14.09.2020 23:00:00 9,4 4,4 27 15 35 19 W 1013,7 50 0,0
14.09.2020 22:00:00 9,8 4,2 27 15 38 20 W 1013,1 50 0,0
14.09.2020 21:00:00 10,4 4,3 32 17 39 21 W 1012,4 50 0,0
14.09.2020 20:00:00 11,0 3,8 19 10 34 19 W 1012,1 50 0,0

tt = temperatuur
td = dauwpunt
ff = windsnelheid
fx = windstoten
dd = windrichting
ppp = luchtdruk
vv = zicht
rr = neerslag

Weerstations in de omgeving